Find Starlink 5498

NORAD ID: 55633 Int'l Des: 2023-021 Owner: SPXS Country: US Constellation: starlink operational
LEOCIRCULAR

当前视图

正在加载3D地球...

About Starlink 5498

Starlink 5498 (NORAD 55633) is a starlink constellation satellite (v1.5) launched Feb 17, 2023 by SPXS of US. It operates in LEO, CIRCULAR orbit with a mass of 305.00 kg.

关于 Starlink 5498

正在加载描述...

即将过境

Passes for default location (London). Set your location on the main map for personalized predictions.

高度历史

Loading altitude history...

两行轨道根数

1 55633U 23021F 26170.13173920 .00000164 00000-0 21506-4 0 9991
2 55633 69.9994 308.6654 0003376 269.1075 90.9697 14.98331345183497
Epoch: Jun 19, 2026 • Age: 7 hours

当前状态

高度 586.2 km
速度 7.57 km/s
星下点 -42.71°S, 81.1°E
发射日期 Feb 17, 2023
运行时间 3.3 years
类型 internet

技术详情

分类 Payload
质量 305.00 kg
干质量 290.00 kg
总质量 305.00 kg
长度 0.20 m
直径 2.80 m
跨度 9.00 m
形状 Box + pan
制造商 SPXS
平台类型 Starlink
阶段状态 In Orbit
所有者/国家 SPXS/US

Most Searched